Date,TemperatureHighF,TemperatureAvgF,TemperatureLowF,DewpointHighF,DewpointAvgF,DewpointLowF,HumidityHigh,HumidityAvg,HumidityLow,PressureMaxIn,PressureMinIn,WindSpeedMaxMPH,WindSpeedAvgMPH,GustSpeedMaxMPH,PrecipitationSumIn
2013-8-1,86.5,70.6,58.7,65.0,56.6,53.0,88,64,41,29.08,28.90,10,2,10,0.00
2013-8-2,75.3,68.8,61.6,61.0,55.8,50.0,85,65,44,29.09,28.89,14,4,14,0.00
2013-8-3,76.4,68.1,58.5,57.0,53.4,49.0,87,62,40,29.24,29.09,11,3,12,0.00
2013-8-4,75.0,65.6,57.2,58.0,54.8,50.0,87,69,48,29.27,29.03,10,2,10,0.00
2013-8-5,83.8,69.1,61.1,69.0,63.5,57.0,100,84,61,29.06,28.83,28,2,28,0.73
2013-8-6,84.2,69.4,60.3,67.0,62.2,58.0,98,80,56,28.89,28.71,24,2,33,0.29
2013-8-7,75.4,66.6,60.5,61.0,56.3,50.0,99,74,42,29.08,28.83,14,4,15,0.00
2013-8-8,75.9,66.0,61.2,62.0,58.1,56.0,93,77,56,29.10,29.02,11,1,11,4.68
2013-8-9,72.8,67.0,60.9,61.0,56.1,50.0,97,70,48,29.17,29.04,22,6,22,0.00
2013-8-10,75.4,67.9,61.7,59.0,54.2,49.0,84,63,45,29.23,29.12,9,2,9,0.00
2013-8-11,83.1,71.1,64.9,67.0,61.7,57.0,91,74,51,29.13,29.02,8,2,8,0.00
2013-8-12,78.0,69.9,61.7,66.0,58.1,52.0,94,69,44,29.11,29.03,18,5,18,0.00
2013-8-13,76.1,67.4,59.0,58.0,52.5,45.0,92,62,38,29.23,29.11,16,4,16,0.00
2013-8-14,75.9,66.9,58.2,60.0,54.0,49.0,94,66,40,29.24,29.13,15,3,15,0.00
2013-8-15,82.7,69.0,58.0,61.0,56.8,53.0,91,67,43,29.17,29.10,11,1,11,0.00
2013-8-16,82.5,71.3,60.3,62.0,57.2,53.0,91,64,40,29.23,29.16,10,1,10,0.00
2013-8-17,81.7,71.9,61.6,60.0,58.0,56.0,87,64,44,29.24,29.13,6,0,6,0.00
2013-8-18,82.5,72.8,62.8,62.0,59.0,54.0,85,64,43,29.17,29.03,12,1,12,0.00
2013-8-19,87.8,75.4,66.3,70.0,65.2,59.0,85,72,54,29.07,28.93,7,0,7,0.00
2013-8-20,90.2,79.1,70.9,74.0,70.0,66.0,90,76,55,28.95,28.89,7,0,7,0.00
2013-8-21,86.9,78.8,72.3,76.0,71.5,61.0,95,80,60,29.04,28.88,9,2,9,0.00
2013-8-22,84.4,75.3,67.8,62.0,55.1,49.0,68,51,32,29.17,29.04,15,4,15,0.00
2013-8-23,85.0,74.0,65.9,69.0,61.0,52.0,84,65,53,29.18,29.06,13,3,13,0.00
2013-8-24,86.5,78.6,71.5,73.0,69.9,67.0,87,76,59,29.10,28.96,11,2,13,0.00
2013-8-25,93.2,84.1,76.8,75.0,72.7,71.0,87,71,54,29.04,28.96,9,1,10,0.00
2013-8-26,94.1,85.2,76.1,77.0,74.7,73.0,93,74,52,29.02,28.88,7,1,7,0.00
2013-8-27,92.4,83.1,75.9,79.0,75.0,71.0,93,78,60,28.97,28.83,10,2,10,0.00
2013-8-28,89.0,79.4,72.0,74.0,72.1,69.0,97,80,56,29.05,28.95,12,3,12,0.00
2013-8-29,93.7,83.4,75.9,76.0,73.1,69.0,95,73,46,29.04,28.88,15,1,15,0.00
2013-8-30,81.5,76.0,70.5,72.0,67.6,64.0,92,77,61,28.99,28.86,17,5,17,0.00
2013-8-31,91.7,75.9,67.4,71.0,66.5,64.0,92,74,49,28.94,28.76,30,3,30,0.14